星链-5630 (STARLINK-5630 )

导读 | 豆包AI

STARLINK-5630是美国太空探索技术公司(SpaceX)星链(Starlink)卫星互联网项目的卫星,于2023年1月31日发射入轨,属于星链低轨道卫星星座组网卫星,承担卫星互联网信号传输任务。星链旨在为全球提供覆盖广泛的高速互联网服务,该卫星是星链星座建设过程中发射的组网卫星之一,目前已在轨运行多年。

Basic Information
目录编号:
55406
目录名称:
STARLINK-5630
国际标识:
2023-014R
轨道中心:
EARTH
卫星名称:
星链-5630
卫星全名:
星链-5630 (STARLINK-5630 )
卫星状态:
在轨 (已飞行1185 天)
发射日期:
2023-01-31 UTC
国别 :
美国 (US)
星等 :
--
Orbit Information
数据来源 国际轨道数据 AOE轨道数据
星历时间 2026-04-30T05:44:18+0800
15小时前
查看轨道信息
2026-04-30T08:00:00+0800
13小时前
查看轨道信息
半长轴 6950.189km 6950.206km
偏心率 0.0002424 0.0003171
轨道倾角 69.998° 69.999°
近地点辐角 271.340° 283.687°
升交点赤经 295.459° 295.221°
平近点角 88.748° 224.521°
近地点 570.367km 569.865km
远地点 573.737km 574.273km
周期 96.107分钟 96.107分钟
每日圈数 14.983315 14.983258
Detailed Information
固有亮度:
5
最大亮度:
2.5
卫星平台:
Starlink v1.5
覆盖范围:
全球
运营商:
太空探索技术公司
运营商所在国:
美国
制造商(研发单位):
太空探索技术公司
制造商所在国:
美国
使用方式:
暂无
Satellite Introduction
星链(Starlink)计划是由太空探索技术公司(SpaceX)提出的一个巨型低轨卫星互联网星座项目,计划在2019年至2024年间在太空搭建由约1.2万颗卫星组成的“星链”网络,其中1584颗将部署在地球上空550千米处的近地轨道,并从2020年开始工作。该卫星仍在工作。
2D Orbit Map
3D Orbit Map
Orbit Altitude Analysis Chart
Orbit Inclination Analysis Chart
Orbit Comprehensive Analysis Chart
View Comprehensive Chart